Flag for Norway Weather past 2 weeks in Mysen, Norway

Now
64 °F

Overcast.


Feels Like: 64 °F
Forecast: 47 / 70 °F
Wind: 5 mph from Southwest

Location: Rygge

Current Time: Aug 3, 2015 at 7:33:35 PM

Latest Report: Aug 3, 2015 at 6:00 PM


Visibility: 22 mi

Pressure: 30.14 "Hg

Humidity: 59%

Dew point: 49 °F

Location of MysenLocation

Historic Weather in Mysen — Graph

°F

Mysen temperature yesterday

Maximum temperature yesterday: 64 °F (at 1:00 PM)
Minimum temperature yesterday: 51 °F (at 5:00 AM)
Average temperature yesterday: 58 °F

Past Weeks' High & Low Weather Summary

 TemperatureHumidityPressure
High72 °F (Jul 30, 4:00 PM)98% (Jul 25, 4:00 AM)30.17 "Hg (Jul 25, 4:00 AM)
Low47 °F (Aug 3, 4:00 AM)39% (Jul 23, 8:00 PM)29.38 "Hg (Jul 26, 9:00 AM)
Average58 °F78%29.70 "Hg
* Reported Jul 19 6:00 PM — Aug 3 6:00 PM, Mysen, Weather by CustomWeather, © 2015

Note: Actual official high and low records may vary slightly from our data, if they occured in-between our weather recording intervals... More about our weather records

Advertising

Mysen weather history for previous 24 hours

 ConditionsComfort  
Time TempWeatherWind HumidityBarometerVisibility
6:00 PM
Mon, Aug 3
64 °FOvercast.5 mph59%30.14 "Hg22 mi
5:00 PM65 °FSunny.5 mph48%30.14 "Hg19 mi
4:00 PM65 °FPassing clouds.5 mph61%30.15 "Hg22 mi
3:00 PM65 °FPassing clouds.6 mph68%30.16 "Hg15 mi
2:00 PM65 °FOvercast.5 mph70%30.16 "Hg18 mi
1:00 PM67 °FPartly sunny.2 mph66%30.16 "Hg22 mi
12:00 PM60 °FOvercast.2 mph76%30.17 "Hg25 mi
11:00 AM60 °FOvercast.2 mph73%30.16 "Hg25 mi
10:00 AM58 °FScattered clouds.2 mph76%30.16 "Hg28 mi
9:00 AM55 °FPassing clouds.3 mph84%30.16 "Hg28 mi
8:00 AM53 °FPartly sunny.3 mph86%30.14 "Hg31 mi
7:00 AM51 °FSunny.2 mph88%30.14 "Hg25 mi
5:00 AM47 °FClear.2 mph93%30.13 "Hg28 mi
4:00 AM47 °FClear.2 mph95%30.11 "Hg31 mi
3:00 AM48 °FClear.1 mph97%30.11 "Hg14 mi
2:00 AM49 °FClear.1 mph95%30.10 "Hg12 mi
1:00 AM52 °FClear.2 mph91%30.09 "Hg12 mi
12:00 AM56 °FClear.3 mph82%30.08 "Hg12 mi
10:00 PM
Sun, Aug 2
57 °FClear.2 mph89%30.05 "Hg12 mi
9:00 PM60 °FSunny.3 mph85%30.03 "Hg14 mi
8:00 PM61 °FSunny.6 mph78%30.02 "Hg16 mi
7:00 PM62 °FSunny.6 mph71%30.01 "Hg25 mi
Weather by CustomWeather, © 2015

See weather overviewHow to use our weather pages